Location: Colorado Springs
(38.8340°N, 104.8210°W)
Time: 03:42:06
(UTC-07:00)

Envisat - Pass Details

Date: 08 October 2017
Orbit: 764 x 766 km, 98.2° (Epoch: 21 November)

Event Time Altitude Azimuth Distance (km) Brightness Sun altitude
Exits shadow 20:21:37 45° 58° (ENE) 1,039 3.3 -22.4°
Drops below altitude 10° 20:26:05 10° 360° (N) 2,312 5.6 -23.2°
Sets 20:28:28 0° 354° (N) 3,242 6.5 -23.7°
